GW1239 Weather Reports


time (UTC)temp
C
wind
direction
speed
KPH
gust
KPH
rain 1hr
cm
rain 24hr
cm
rain mn
cm
humidity
%
barometer
mb
20260506212019 18 93 1.6 8.0 0.00 0.48 0.48 87 1007.4
20260506211519 18 49 1.6 9.7 0.00 0.48 0.48 87 1007.4
20260506211019 18 106 4.8 12.9 0.00 0.48 0.48 86 1007.4
20260506210516 18 99 3.2 11.3 0.00 0.48 0.48 87 1007.3
20260506210017 18 19 3.2 8.0 0.00 0.48 0.48 88 1007.3
20260506205520 18 40 3.2 8.0 0.00 0.48 0.48 87 1007.2
20260506205020 17 123 3.2 12.9 0.00 0.48 0.48 88 1007.1
20260506204521 17 179 1.6 6.4 0.00 0.48 0.48 88 1007.1
20260506204020 17 53 3.2 6.4 0.00 0.48 0.48 88 1007.1
20260506203520 17 72 3.2 8.0 0.00 0.48 0.48 88 1007.1
20260506203020 17 14 1.6 4.8 0.00 0.48 0.48 89 1007.1
20260506202517 17 88 3.2 11.3 0.00 0.48 0.48 88 1007.0
20260506202017 17 128 3.2 12.9 0.00 0.48 0.48 89 1007.0
20260506201517 17 104 3.2 8.0 0.00 0.48 0.48 90 1007.1
20260506201017 17 72 1.6 4.8 0.00 0.48 0.48 91 1007.2
20260506200517 17 75 1.6 4.8 0.00 0.48 0.48 91 1007.2
20260506200018 17 40 1.6 6.4 0.00 0.48 0.48 92 1007.2
20260506195517 17 32 1.6 9.7 0.00 0.48 0.48 92 1007.3
20260506195018 16 73 1.6 8.0 0.00 0.48 0.48 93 1007.3
20260506194518 16 114 3.2 9.7 0.00 0.48 0.48 93 1007.4
20260506194018 16 82 3.2 9.7 0.00 0.48 0.48 93 1007.6
20260506193518 16 117 3.2 8.0 0.00 0.48 0.48 94 1007.6
20260506193018 16 133 1.6 8.0 0.00 0.48 0.48 94 1007.7
20260506192518 16 31 1.6 8.0 0.00 0.48 0.48 94 1007.7
20260506192018 16 69 1.6 8.0 0.00 0.48 0.48 94 1007.8
20260506191518 16 119 3.2 8.0 0.00 0.48 0.48 94 1007.9
20260506191018 16 29 3.2 9.7 0.00 0.48 0.48 93 1007.9
20260506190518 16 25 3.2 9.7 0.00 0.48 0.48 92 1008.0
20260506190019 16 47 3.2 12.9 0.00 0.48 0.48 92 1008.0
20260506185519 16 89 3.2 9.7 0.00 0.48 0.48 92 1008.0
20260506185018 16 52 3.2 14.5 0.00 0.48 0.48 93 1007.9
20260506184519 16 89 1.6 6.4 0.00 0.48 0.48 94 1007.9
20260506184019 16 71 1.6 8.0 0.00 0.48 0.48 94 1007.9
20260506183519 16 37 1.6 4.8 0.00 0.48 0.48 95 1007.9
20260506183019 16 95 3.2 6.4 0.00 0.48 0.48 95 1007.8
20260506182519 16 102 3.2 8.0 0.00 0.48 0.48 95 1007.9
20260506182019 16 67 3.2 11.3 0.00 0.48 0.48 95 1008.0
20260506181520 16 122 1.6 9.7 0.00 0.48 0.48 94 1008.0
20260506181020 16 65 3.2 6.4 0.00 0.48 0.48 94 1008.1
20260506180520 16 92 3.2 8.0 0.03 0.48 0.48 93 1008.1
20260506180017 17 80 1.6 6.4 0.03 0.48 0.48 93 1008.2
20260506175516 17 66 1.6 8.0 0.03 0.48 0.48 92 1008.2
20260506175017 17 98 3.2 9.7 0.03 0.48 0.48 92 1008.3
20260506174520 17 85 3.2 9.7 0.05 0.48 0.48 92 1008.4
20260506174020 17 56 1.6 3.2 0.05 0.48 0.48 92 1008.4
20260506173520 17 37 1.6 4.8 0.05 0.48 0.48 92 1008.4
20260506173020 17 22 3.2 6.4 0.05 0.48 0.48 91 1008.4
20260506172558 17 72 3.2 9.7 0.05 0.48 0.48 91 1008.3
20260506172017 17 351 1.6 6.4 0.08 0.48 0.48 92 1008.3
20260506171517 17 13 3.2 9.7 0.10 0.48 0.48 92 1008.1
20260506171037 17 350 1.6 6.4 0.13 0.48 0.48 92 1008.1
20260506170518 17 134 1.6 8.0 0.13 0.48 0.48 92 1008.2
20260506170018 17 6 1.6 8.0 0.15 0.46 0.46 93 1008.2
20260506165521 17 23 1.6 4.8 0.18 0.46 0.46 92 1008.3
20260506165041 17 55 1.6 8.0 0.20 0.46 0.46 92 1008.3
20260506164518 17 7 1.6 8.0 0.23 0.46 0.46 92 1008.4
20260506164018 17 96 1.6 8.0 0.28 0.46 0.46 92 1008.6
20260506163518 17 58 1.6 9.7 0.30 0.43 0.43 92 1008.8
20260506163038 16 56 1.6 3.2 0.33 0.43 0.43 92 1009.0
20260506162518 16 355 1.6 6.4 0.33 0.43 0.43 92 1009.2
20260506162018 16 47 1.6 3.2 0.33 0.41 0.41 92 1009.4
20260506161538 16 18 1.6 4.8 0.30 0.38 0.38 91 1009.5
20260506161019 16 25 1.6 3.2 0.28 0.36 0.36 90 1009.5
20260506160519 17 53 1.6 4.8 0.28 0.33 0.33 90 1009.5
20260506160019 17 69 0.0 4.8 0.28 0.30 0.30 90 1009.6
20260506155518 17 103 1.6 6.4 0.25 0.28 0.28 89 1009.7
20260506155019 17 92 1.6 6.4 0.23 0.25 0.25 88 1009.8
20260506154519 17 56 1.6 6.4 0.20 0.20 0.20 87 1010.0
20260506154019 17 39 1.6 6.4 0.15 0.18 0.18 85 1009.9
20260506153519 17 32 1.6 4.8 0.13 0.13 0.13 84 1009.8
20260506153020 18 127 1.6 6.4 0.10 0.10 0.10 82 1009.7
20260506152520 18 50 1.6 6.4 0.08 0.10 0.10 81 1009.7
20260506152020 18 36 3.2 8.0 0.08 0.08 0.08 82 1009.8
20260506151540 18 97 4.8 12.9 0.05 0.08 0.08 80 1009.6
20260506151017 18 79 3.2 8.0 0.05 0.08 0.08 80 1009.9
20260506150537 18 40 3.2 14.5 0.05 0.05 0.05 78 1009.8
20260506150017 18 2 3.2 11.3 0.03 0.05 0.05 77 1009.8
20260506145540 19 103 3.2 11.3 0.03 0.03 0.03 75 1009.7
20260506145040 19 111 4.8 14.5 0.00 0.03 0.03 74 1009.9
20260506144600 19 97 3.2 9.7 0.00 0.03 0.03 73 1009.9
20260506144040 19 87 4.8 9.7 0.00 0.03 0.03 71 1009.9
20260506143521 20 98 4.8 14.5 0.00 0.03 0.03 72 1009.9
20260506143017 20 116 3.2 11.3 0.00 0.03 0.03 71 1009.9
20260506142517 20 5 4.8 14.5 0.00 0.03 0.03 71 1009.8
20260506142017 20 64 4.8 12.9 0.00 0.03 0.03 70 1009.8
20260506141518 20 35 4.8 12.9 0.00 0.03 0.03 70 1009.8
20260506141018 20 38 6.4 14.5 0.00 0.03 0.03 70 1009.7
20260506140517 20 316 4.8 12.9 0.00 0.03 0.03 71 1009.6
20260506140018 19 105 3.2 17.7 0.00 0.03 0.03 71 1009.7
20260506135541 19 51 3.2 11.3 0.00 0.03 0.03 72 1009.7
20260506135018 19 35 3.2 8.0 0.00 0.03 0.03 73 1009.7
20260506134518 19 86 4.8 14.5 0.00 0.03 0.03 73 1009.8
20260506134018 19 113 3.2 11.3 0.00 0.03 0.03 73 1009.7
20260506133518 19 77 3.2 16.1 0.00 0.03 0.03 73 1009.7
20260506133018 19 55 3.2 9.7 0.00 0.03 0.03 73 1009.7
20260506132519 19 9 4.8 11.3 0.00 0.03 0.03 73 1009.8
20260506132018 19 7 3.2 12.9 0.00 0.03 0.03 72 1010.0
20260506131519 19 30 3.2 9.7 0.00 0.03 0.03 72 1009.9
20260506131019 19 21 3.2 12.9 0.00 0.03 0.03 72 1009.9
20260506130519 19 1 3.2 6.4 0.00 0.03 0.03 73 1010.0
20260506130019 19 91 4.8 14.5 0.00 0.03 0.03 73 1009.8
20260506125519 18 60 4.8 12.9 0.00 0.03 0.03 73 1009.9
20260506125019 18 85 4.8 14.5 0.00 0.03 0.03 74 1010.0
20260506124539 18 102 4.8 14.5 0.00 0.03 0.03 74 1009.8
20260506124019 18 336 4.8 12.9 0.00 0.03 0.03 74 1009.7
20260506123519 18 82 4.8 11.3 0.00 0.03 0.03 74 1009.7
20260506123019 18 356 3.2 9.7 0.00 0.03 0.03 75 1009.7
20260506122519 18 348 3.2 11.3 0.00 0.03 0.03 75 1009.7
20260506122019 18 34 1.6 6.4 0.00 0.03 0.03 76 1009.9
20260506121519 18 87 3.2 9.7 0.00 0.03 0.03 77 1009.8
20260506121017 18 73 3.2 8.0 0.03 0.03 0.03 77 1009.9
20260506120537 18 72 3.2 9.7 0.03 0.03 0.03 77 1010.0
20260506120017 18 134 3.2 12.9 0.03 0.03 0.03 77 1009.9
20260506115520 18 139 3.2 14.5 0.03 0.03 0.03 77 1009.9
20260506115020 18 86 3.2 6.4 0.03 0.03 0.03 77 1009.9
20260506114520 18 74 4.8 14.5 0.03 0.03 0.03 77 1009.9
20260506114020 18 69 1.6 6.4 0.03 0.03 0.03 77 1010.1
20260506113520 18 93 3.2 9.7 0.03 0.03 0.03 78 1010.2
20260506113017 18 87 3.2 9.7 0.03 0.03 0.03 78 1010.2
20260506112558 18 92 3.2 8.0 0.03 0.03 0.03 78 1010.2
20260506112018 18 15 3.2 6.4 0.03 0.03 0.03 78 1010.0
20260506111518 17 95 4.8 11.3 0.03 0.03 0.03 78 1010.1
20260506111058 17 335 3.2 11.3 0.00 0.00 0.00 79 1010.0
20260506110538 17 51 1.6 8.0 0.00 0.00 0.00 80 1010.0
20260506110018 17 121 3.2 8.0 0.00 0.00 0.00 80 1010.0
20260506105521 17 247 3.2 9.7 0.00 0.00 0.00 80 1009.9
20260506105018 17 357 3.2 8.0 0.00 0.00 0.00 80 1009.9
20260506104518 17 78 3.2 8.0 0.00 0.00 0.00 81 1009.8
20260506104018 17 68 3.2 9.7 0.00 0.00 0.00 81 1009.8
20260506103519 17 100 3.2 6.4 0.00 0.00 0.00 82 1009.7
20260506103019 17 74 1.6 8.0 0.00 0.00 0.00 82 1009.7
20260506102518 17 88 1.6 6.4 0.00 0.00 0.00 82 1009.8
20260506102019 17 49 1.6 8.0 0.00 0.00 0.00 81 1009.9
20260506101619 17 313 3.2 8.0 0.00 0.00 0.00 81 1009.9
20260506101038 17 64 3.2 9.7 0.00 0.00 0.00 82 1009.8
20260506100519 17 20 1.6 12.9 0.00 0.00 0.00 81 1009.8
20260506100019 17 96 3.2 9.7 0.00 0.00 0.00 81 1009.7
20260506095519 17 20 3.2 8.0 0.00 0.00 0.00 81 1009.5
20260506095019 17 56 3.2 8.0 0.00 0.00 0.00 81 1009.5
20260506094600 17 41 1.6 6.4 0.00 0.00 0.00 81 1009.5
20260506094019 17 20 1.6 6.4 0.00 0.00 0.00 80 1009.5
20260506093519 17 84 3.2 6.4 0.00 0.00 0.00 80 1009.5
20260506093020 17 43 3.2 8.0 0.00 0.00 0.00 80 1009.5
20260506092519 17 86 3.2 11.3 0.00 0.00 0.00 80 1009.5
20260506092020 17 76 3.2 9.7 0.00 0.00 0.00 80 1009.6
20260506091517 17 82 3.2 8.0 0.00 0.00 0.00 81 1009.6
20260506091040 17 83 1.6 6.4 0.00 0.00 0.00 80 1009.6
20260506090517 17 70 3.2 9.7 0.00 0.00 0.00 80 1009.7
20260506090017 17 67 3.2 8.0 0.00 0.00 0.00 80 1009.7
20260506085520 17 83 3.2 9.7 0.00 0.00 0.00 80 1009.7
20260506085100 17 106 3.2 11.3 0.00 0.00 0.00 80 1009.7
20260506084540 17 84 3.2 6.4 0.00 0.00 0.00 81 1009.7
20260506084040 17 45 1.6 4.8 0.00 0.00 0.00 80 1009.8
20260506083538 17 51 3.2 9.7 0.00 0.00 0.00 81 1009.8
20260506083117 17 96 1.6 6.4 0.00 0.00 0.00 81 1009.8
20260506082518 17 57 1.6 6.4 0.00 0.00 0.00 81 1009.8
20260506082018 17 74 1.6 8.0 0.00 0.00 0.00 80 1009.8
20260506081518 17 110 3.2 9.7 0.00 0.00 0.00 80 1009.9
20260506081018 17 65 3.2 8.0 0.00 0.00 0.00 80 1009.9
20260506080518 17 97 3.2 12.9 0.00 0.00 0.00 80 1009.9
20260506073518 17 80 3.2 6.4 0.00 0.00 0.00 80 1009.9
20260506073019 17 84 1.6 8.0 0.00 0.00 0.00 80 1009.9
20260506072518 18 55 1.6 8.0 0.00 0.00 0.00 79 1010.0
20260506072019 18 86 1.6 6.4 0.00 0.00 0.00 79 1009.9
20260506071519 18 106 1.6 4.8 0.00 0.00 0.00 79 1009.9
20260506071019 18 91 1.6 4.8 0.00 0.00 0.00 79 1010.0
20260506070519 18 100 3.2 8.0 0.00 0.00 0.00 79 1010.0
20260506062017 18 347 1.6 4.8 0.00 0.00 0.00 76 1010.2
20260506061517 18 53 1.6 4.8 0.00 0.00 0.00 75 1010.2
20260506061017 18 74 3.2 9.7 0.00 0.00 0.00 75 1010.2
20260506060520 18 71 1.6 6.4 0.00 0.00 0.00 75 1010.3
20260506051018 19 65 1.6 4.8 0.00 0.00 0.00 71 1010.6
20260506050521 19 87 3.2 9.7 0.00 0.00 0.00 70 1010.7
20260506045018 19 88 3.2 8.0 0.00 0.00 0.00 70 1010.7
20260506044518 19 49 3.2 6.4 0.00 0.00 0.00 70 1010.7
20260506044059 19 90 3.2 8.0 0.00 0.00 0.00 69 1010.7
20260506043518 19 70 1.6 6.4 0.00 0.00 0.00 69 1010.7
20260506043019 19 77 1.6 4.8 0.00 0.00 0.00 68 1010.7
20260506042519 19 76 3.2 11.3 0.00 0.00 0.00 68 1010.7
20260506042039 20 81 3.2 6.4 0.00 0.00 0.00 68 1010.7
20260506041519 20 35 3.2 4.8 0.00 0.00 0.00 67 1010.7
20260506041019 20 57 3.2 6.4 0.00 0.00 0.00 67 1010.7
20260506040519 20 83 3.2 8.0 0.00 0.00 0.00 67 1010.6
20260506040019 20 69 3.2 6.4 0.00 0.00 0.00 66 1010.6
20260506035519 20 116 3.2 8.0 0.00 0.00 0.00 66 1010.6
20260506035019 20 75 3.2 6.4 0.00 0.00 0.00 66 1010.6
20260506034519 20 65 3.2 8.0 0.00 0.00 0.00 65 1010.6
20260506034020 20 83 3.2 9.7 0.00 0.00 0.00 65 1010.6
20260506033520 20 54 3.2 8.0 0.00 0.00 0.00 65 1010.5
20260506033020 20 74 1.6 4.8 0.00 0.00 0.00 64 1010.6
20260506032516 20 95 3.2 11.3 0.00 0.00 0.00 64 1010.5
20260506032017 20 88 3.2 9.7 0.00 0.00 0.00 64 1010.5
20260506031517 20 64 3.2 6.4 0.00 0.00 0.00 64 1010.5
20260506031017 20 336 3.2 8.0 0.00 0.00 0.00 64 1010.5
20260506030520 20 67 3.2 8.0 0.00 0.00 0.00 64 1010.6
20260506030020 20 48 1.6 8.0 0.00 0.00 0.00 63 1010.6
20260506025520 20 109 3.2 8.0 0.00 0.00 0.00 63 1010.6
20260506025018 20 109 4.8 16.1 0.00 0.00 0.00 63 1010.6
20260506024537 20 99 3.2 6.4 0.00 0.00 0.00 63 1010.6
20260506024037 20 71 3.2 8.0 0.00 0.00 0.00 63 1010.6
20260506023518 20 78 1.6 6.4 0.00 0.00 0.00 63 1010.6
20260506023017 20 100 3.2 8.0 0.00 0.00 0.00 62 1010.6
20260506022518 20 121 3.2 9.7 0.00 0.00 0.00 62 1010.6
20260506022018 21 96 4.8 11.3 0.00 0.00 0.00 62 1010.6
20260506021521 21 106 3.2 9.7 0.00 0.00 0.00 62 1010.6
20260506021021 21 76 3.2 8.0 0.00 0.00 0.00 61 1010.6
20260506020518 21 118 3.2 8.0 0.00 0.00 0.00 61 1010.6
20260506020018 21 74 3.2 6.4 0.00 0.00 0.00 60 1010.6
20260506015518 21 94 3.2 8.0 0.00 0.00 0.00 60 1010.6
20260506015018 21 100 3.2 8.0 0.00 0.00 0.00 59 1010.5
20260506014518 21 99 3.2 11.3 0.00 0.00 0.00 59 1010.5
20260506014039 21 126 3.2 12.9 0.00 0.00 0.00 58 1010.4
20260506013518 21 91 3.2 9.7 0.00 0.00 0.00 58 1010.4
20260506013039 22 32 1.6 8.0 0.00 0.00 0.00 57 1010.4
20260506012519 22 88 6.4 17.7 0.00 0.00 0.00 56 1010.4
20260506012019 22 94 3.2 9.7 0.00 0.00 0.00 54 1010.3
20260506011519 22 103 3.2 9.7 0.00 0.00 0.00 53 1010.2
20260506011019 22 114 4.8 14.5 0.00 0.00 0.00 52 1010.1
20260506010519 22 28 1.6 11.3 0.00 0.00 0.00 50 1010.0
20260506010019 23 85 3.2 11.3 0.00 0.00 0.00 49 1010.0
20260506005539 23 118 4.8 14.5 0.00 0.00 0.00 48 1009.9
20260506005039 23 71 4.8 14.5 0.00 0.00 0.00 48 1009.8
20260506004519 23 68 3.2 11.3 0.00 0.00 0.00 47 1009.7
20260506004040 23 130 3.2 12.9 0.00 0.00 0.00 47 1009.7
20260506003540 23 23 1.6 8.0 0.00 0.00 0.00 47 1009.6
20260506003017 23 36 1.6 8.0 0.00 0.00 0.00 46 1009.5
20260506002517 23 105 4.8 14.5 0.00 0.00 0.00 46 1009.5
20260506002017 23 61 3.2 9.7 0.00 0.00 0.00 46 1009.5
20260506001520 23 340 3.2 11.3 0.00 0.00 0.00 46 1009.4
20260506001100 23 77 3.2 8.0 0.00 0.00 0.00 45 1009.4
20260506000600 24 354 3.2 8.0 0.00 0.00 0.00 45 1009.3
20260506000020 24 57 3.2 9.7 0.00 0.00 0.00 45 1009.3
20260505235520 24 58 3.2 12.9 0.00 0.00 0.00 44 1009.3
20260505235017 24 352 3.2 14.5 0.00 0.00 0.00 44 1009.3
20260505234517 25 23 3.2 8.0 0.00 0.00 0.00 44 1009.3
20260505234017 25 36 4.8 19.3 0.00 0.00 0.00 43 1009.2
20260505233518 25 33 3.2 9.7 0.00 0.00 0.00 44 1009.2
20260505233018 25 38 3.2 12.9 0.00 0.00 0.00 44 1009.1
20260505232518 25 78 3.2 11.3 0.00 0.00 0.00 43 1009.0
20260505232018 25 83 4.8 12.9 0.00 0.00 0.00 42 1009.0
20260505231521 25 61 3.2 9.7 0.00 0.00 0.00 41 1009.0
20260505231021 25 37 1.6 8.0 0.00 0.00 0.00 40 1008.9
20260505230601 26 61 4.8 12.9 0.00 0.00 0.00 39 1008.8
20260505230018 26 5 3.2 11.3 0.00 0.00 0.00 38 1008.8
20260505225518 26 57 4.8 12.9 0.00 0.00 0.00 37 1008.8
20260505225019 26 59 4.8 14.5 0.00 0.00 0.00 37 1008.8
20260505224519 26 105 4.8 14.5 0.00 0.00 0.00 37 1008.7
20260505224019 26 71 3.2 11.3 0.00 0.00 0.00 37 1008.7
20260505223519 26 8 4.8 9.7 0.00 0.00 0.00 37 1008.7
20260505223019 26 64 3.2 11.3 0.00 0.00 0.00 36 1008.7
20260505222519 26 39 6.4 16.1 0.00 0.03 0.00 36 1008.6
20260505222019 26 27 4.8 12.9 0.00 0.03 0.00 36 1008.7
20260505221539 26 26 4.8 11.3 0.00 0.03 0.00 36 1008.8
20260505221019 26 335 4.8 11.3 0.00 0.03 0.00 36 1008.7
20260505220519 26 300 4.8 14.5 0.00 0.03 0.00 35 1008.7
20260505220019 27 109 6.4 16.1 0.00 0.03 0.00 35 1008.7
20260505215519 27 114 4.8 12.9 0.00 0.03 0.00 34 1008.5
20260505215020 27 355 4.8 12.9 0.00 0.03 0.00 34 1008.6
20260505214519 27 3 4.8 11.3 0.00 0.03 0.00 34 1008.5
20260505214020 27 12 4.8 14.5 0.00 0.03 0.00 33 1008.4
20260505213519 27 36 4.8 11.3 0.00 0.03 0.00 33 1008.3
20260505213017 27 16 6.4 14.5 0.00 0.03 0.00 32 1008.4
20260505212537 27 100 6.4 19.3 0.00 0.03 0.00 32 1008.4